Overview Statistics Trail Chart Weather Telemetry Raw packets
 

This is the latest recevied weather packets stored in our database for station/object 4S6DRJ-13. If no packets are shown the sender has not sent any weather packets the latest 10 day(s).

<< 111 112 113 114 115 116 117 >>
Time Temp. Humidity Pressure Rain* Wind** Luminosity Snow
1788290050 27.78° C 83% 1010 hPa 0 mm 0.89 m/s, 240° 0 W/m² -
1788289986 27.78° C 83% 1010 hPa 0 mm 0.89 m/s, 236° 0 W/m² -
1788289925 27.78° C 83% 1010.1 hPa 0 mm 0.45 m/s, 196° 0 W/m² -
1788289864 27.78° C 83% 1010.1 hPa 0 mm 0.89 m/s, 221° 0 W/m² -
1788289803 27.78° C 83% 1010.1 hPa 0 mm 1.79 m/s, 247° 0 W/m² -
1788289743 27.78° C 83% 1010.2 hPa 0 mm 0 m/s 0 W/m² -
1788289681 27.78° C 83% 1010.2 hPa 0 mm 1.34 m/s, 8° 0 W/m² -
1788289620 27.78° C 83% 1010.2 hPa 0 mm 0.45 m/s, 211° 0 W/m² -
1788289559 27.78° C 83% 1010.2 hPa 0 mm 1.34 m/s, 289° 0 W/m² -
1788289506 27.78° C 83% 1010.3 hPa 0 mm 1.79 m/s, 307° 0 W/m² -
1788289437 27.78° C 83% 1010.4 hPa 0 mm 0.89 m/s, 216° 0 W/m² -
1788289376 27.78° C 83% 1010.4 hPa 0 mm 1.79 m/s, 121° 0 W/m² -
1788289315 27.78° C 83% 1010.6 hPa 0 mm 0.89 m/s, 261° 0 W/m² -
1788289254 27.78° C 83% 1010.4 hPa 0 mm 1.79 m/s, 194° 0 W/m² -
1788289193 27.78° C 83% 1010.3 hPa 0 mm 0.89 m/s, 204° 0 W/m² -
1788289132 27.78° C 83% 1010.4 hPa 0 mm 1.34 m/s, 236° 0 W/m² -
1788289071 27.78° C 83% 1010.5 hPa 0 mm 1.79 m/s, 224° 0 W/m² -
1788289010 27.78° C 83% 1010.4 hPa 0 mm 1.34 m/s, 222° 0 W/m² -
1788288949 27.78° C 83% 1010.4 hPa 0 mm 0.45 m/s, 237° 0 W/m² -
1788288888 27.78° C 83% 1010.5 hPa 0 mm 0.45 m/s, 220° 0 W/m² -
1788288827 27.78° C 83% 1010.6 hPa 0 mm 0 m/s 0 W/m² -
1788288766 27.78° C 83% 1010.6 hPa 0 mm 0.45 m/s, 252° 0 W/m² -
1788288706 27.78° C 83% 1010.6 hPa 0 mm 0.45 m/s, 194° 0 W/m² -
1788288644 27.78° C 83% 1010.5 hPa 0 mm 0 m/s 0 W/m² -
1788288583 27.78° C 83% 1010.5 hPa 0 mm 0 m/s 0 W/m² -

* Rain latest hour (hover to see other rain measurements)
** Current wind speed in m/s (hover to see current wind gust speed)